This demonstration page uses our WeatherBlox Daily Observations layout. Learn more.

Left ArrowRight Arrow

Hourly Observations for June 24, 2019

Temp ( °F °C ) Dew Point ( °F °C ) Humidity (%) Winds ( mph kmh ) Pressure ( in mb ) Visibility ( mi km ) Precip ( " mm )
12:51 am 00:51 Clear 70 21.1 26 -3.3 19 19 NNW 5 7 29.76 1008 10 16 0.00 0.00
1:51 am 01:51 Clear 65 18.3 24 -4.4 21 21 Calm 29.76 1008 10 16 0.00 0.00
2:51 am 02:51 Clear 64 17.8 26 -3.3 24 24 SSE 5 7 29.78 1008 10 16 0.00 0.00
3:51 am 03:51 Clear 62 16.7 24 -4.4 23 23 E 6 9 29.79 1009 10 16 0.00 0.00
4:51 am 04:51 Clear 61 16.1 24 -4.4 24 24 SE 3 6 29.80 1009 10 16 0.00 0.00
5:51 am 05:51 Sunny 61 16.1 23 -5 23 23 E 6 9 29.81 1010 10 16 0.00 0.00
6:51 am 06:51 Sunny 69 20.6 25 -3.9 19 19 SSE 3 6 29.82 1010 10 16 0.00 0.00
7:51 am 07:51 Sunny 75 23.9 26 -3.3 16 16 Calm 29.83 1010 10 16 0.00 0.00
8:51 am 08:51 Sunny 81 27.2 26 -3.3 13 13 Calm 29.82 1010 10 16 0.00 0.00
9:51 am 09:51 Sunny 86 30 26 -3.3 11 11 VRB 5 7 29.81 1009 7 11 0.00 0.00
10:51 am 10:51 Sunny 89 31.7 22 -5.6 8 8 Calm 29.80 1009 10 16 0.00 0.00
11:51 am 11:51 Sunny 92 33.3 22 -5.6 8 8 VRB 3 6 29.78 1008 10 16 0.00 0.00
12:51 pm 12:51 Sunny 96 35.6 21 -6.1 6 6 NE 9 15 29.74 1007 10 16 0.00 0.00
1:51 pm 13:51 Mostly Sunny 97 36.1 17 -8.3 5 5 VRB 7 11 29.72 1006 10 16 0.00 0.00
2:51 pm 14:51 Mostly Sunny 96 35.6 15 -9.4 5 5 undefined N/A 29.70 1006 10 16 0.00 0.00
3:51 pm 15:51 Partly Cloudy 98 36.7 17 -8.3 5 5 VRB 7 11 29.68 1005 10 16 0.00 0.00
4:51 pm 16:51 Partly Cloudy 97 36.1 19 -7.2 6 6 VRB 5 7 29.67 1005 10 16 0.00 0.00
5:51 pm 17:51 Partly Cloudy 98 36.7 19 -7.2 6 6 W 14 22 29.66 1004 10 16 0.00 0.00
6:51 pm 18:51 Mostly Sunny 95 35 18 -7.8 6 6 WNW 9 15 29.66 1004 10 16 0.00 0.00
7:51 pm 19:51 Clear 90 32.2 16 -8.9 6 6 NW 12 19 29.66 1005 10 16 0.00 0.00
8:51 pm 20:51 Clear 86 30 16 -8.9 7 7 NW 9 15 29.68 1005 10 16 0.00 0.00
9:51 pm 21:51 Clear 82 27.8 16 -8.9 8 8 W 10 17 29.70 1006 10 16 0.00 0.00
10:51 pm 22:51 Clear 79 26.1 17 -8.3 10 10 WNW 12 19 29.70 1006 10 16 0.00 0.00
11:51 pm 23:51 Clear 77 25 17 -8.3 10 10 WNW 10 17 29.69 1006 10 16 0.00 0.00

Powered by AerisWeather